Notices

What's New in latest Release from April 7th, 2021:

- Updated Glossary, including Speed of Maximum Gust, and Total Hourly Precipitation

- Updated national and regional climate services offices contacts and prices information

- Addition of station inventory lists for 1981-2010, 1971-2000, and 1961-1990 Normals.

If you haven't already, please take our survey and provide feedback about our website: https://eccc.sondage-survey.ca/f/LanguageSelection.aspx?s=442ca660-fcf1-47c0-95a9-59707d6fd709

Hourly Data Report for August 05, 2020

OTTAWA INTL A
ONTARIO
Current Station Operator: NAVCAN

45°19'00.000" N
75°40'00.000" W
114.90 m
6106001
71628
YOW

Download Data

Hourly Data (August 2020)
Hourly Data Report for August 5, 2020
TIME
LST
Temp Definition
°C
Dew Point Definition
°C
Rel Hum Definition
%
Precip. Amount Definition
mm

Wind Dir Definition
10's deg

Wind Spd Definition
km/h
Visibility Definition
km
Stn Press Definition
kPa
Hmdx Definition


Wind Chill Definition


Weather Definition


00:00 18.3 17.9 97   24 17 24.1 99.47     LegendNANA
01:00 18.0 17.5 96   25 15 24.1 99.44     Cloudy
02:00 17.8 17.1 95   24 16 24.1 99.48     LegendNANA
03:00 17.5 16.6 94   26 14 24.1 99.52     LegendNANA
04:00 17.5 16.6 95   24 10 24.1 99.53     Cloudy
05:00 17.4 16.6 95   25 13 24.1 99.62     LegendNANA
06:00 17.3 16.6 96   23 9 24.1 99.71     Rain Showers
07:00 17.7 17.0 95   23 11 24.1 99.73     Mostly Cloudy
08:00 18.7 17.2 91   24 17 24.1 99.78     LegendNANA
09:00 19.6 16.8 83   24 21 24.1 99.82     LegendNANA
10:00 19.0 16.4 84   26 20 24.1 99.91     Mostly Cloudy
11:00 20.5 16.3 76   26 22 24.1 99.94 25   LegendNANA
12:00 22.0 15.3 66   27 21 24.1 99.95 26   LegendNANA
13:00 22.0 15.6 67   27 20 24.1 99.99 26   Mostly Cloudy
14:00 22.8 12.7 52   29 27 24.1 100.02 25   LegendNANA
15:00 22.2 13.1 56   25 16 24.1 100.05 25   LegendNANA
16:00 22.8 10.4 45   22 26 24.1 100.07     Mostly Cloudy
17:00 22.5 11.5 49   22 19 24.1 100.07 25   LegendNANA
18:00 21.8 11.6 52   25 22 24.1 100.06     LegendNANA
19:00 20.2 11.7 58   24 17 24.1 100.08     Mainly Clear
20:00 17.9 11.0 63   25 16 24.1 100.14     LegendNANA
21:00 16.1 10.6 70   25 13 24.1 100.21     LegendNANA
22:00 16.5 10.5 67   25 18 24.1 100.22     Clear
23:00 15.5 10.8 73   25 13 24.1 100.26     LegendNANA

Notes on Data Quality.

Legend

  • E = Estimated
  • M = Missing
  • NA = Not Available*
  • [empty] = Indicates an unobserved value
Date modified: